Regional Weather Roundup
Issued by NWS

Home | Current Version | Previous Version | Text Only | Print | Product List | Glossary On
Versions: 1 2 3 4 5 6 7 8 9 10 11 12 13 14 15 16 17 18 19 20 21 22 23 24 25 26 27 28 29 30 31 32 33 34 35 36 37 38 39 40 41 42 43 44 45 46 47 48 49 50
000
ASUS44 KJAN 052210
RWRMS

MISSISSIPPI HOURLY WEATHER ROUNDUP
NATIONAL WEATHER SERVICE JACKSON MS
400 PM CST FRI FEB 05 2016

NOTE: "FAIR: INDICATES FEW OR NO CLOUDS BELOW 12,000 FEET WITH NO
SIGNIFICANT WEATHER AND/OR OBSTRUCTIONS TO VISIBILITY.

MSZ001>002-007>008-010>013-018>021-025>028-034>036-052300-
NORTHWEST MISSISSIPPI

CITY           SKY/WX    TMP DP  RH WIND       PRES   REMARKS
CLEVELAND      FAIR      51  24  35 MISG      30.42S
GREENWOOD      SUNNY     53  18  25 VRB3      30.42S
GREENVILLE     SUNNY     52  20  28 NW5       30.41F
OLIVE BRANCH   PTSUNNY   48  19  32 CALM      30.39S
OXFORD         FAIR      48  16  27 NW8       30.42R
TUNICA         CLOUDY    50  21  32 CALM      30.42S
$$

MSZ003>006-009-014>017-022>024-029>033-037>039-052300-
NORTHEAST MISSISSIPPI

CITY           SKY/WX    TMP DP  RH WIND       PRES   REMARKS
COLUMBUS AFB   SUNNY     51  19  28 N3        30.40F
CORINTH        FAIR      50  14  23 VRB3      30.39S
GOLDN TRIANGLE SUNNY     52  19  28 CALM      30.40F
TUPELO         SUNNY     51  16  24 NE6       30.40F
$$

MSZ040-058-052300-
CENTRAL MISSISSIPPI

CITY           SKY/WX    TMP DP  RH WIND       PRES   REMARKS
JACKSON INTL   MOSUNNY   53  15  22 N5        30.40F
JACKSON HAWKNS SUNNY     53  16  23 CALM      30.40F
MERIDIAN KEY   SUNNY     52  16  24 VRB5      30.40S
MERIDIAN NAS   SUNNY     52  14  22 N8        30.40F
VICKSBURG      SUNNY     53  18  25 VRB5      30.41F
$$

MSZ059>079-052300-
SOUTH MISSISSIPPI

CITY           SKY/WX    TMP DP  RH WIND       PRES   REMARKS
BROOKHAVEN     FAIR      54  23  30 CALM      30.40F
HATTIESBURG    SUNNY     54  16  22 VRB5      30.40F
MCCOMB         SUNNY     55  18  23 CALM      30.38F
NATCHEZ        SUNNY     54  18  24 NW5       30.39F
PINE BELT      SUNNY     54 N/A N/A N5        30.40F
$$

MSZ080>082-052300-
COASTAL MISSISSIPPI

CITY           SKY/WX    TMP DP  RH WIND       PRES   REMARKS
BAY ST LOUIS   SUNNY     55   1  11 N7        30.39F
BILOXI         SUNNY     54  19  25 N8        30.38F
PASCAGOULA     SUNNY     56  20  24 N8        30.38F
GULFPORT       SUNNY     56  16  20 N7        30.38F
$$



USA.gov is the U.S. government's official web portal to all federal, state and local government web resources and services.